[[{"header":{"parameterUnit":"m.s-1","parameterCategory":1,"la1":30.2991,"la2":30.254,"lo1":-89.0895,"lo2":-89.0444,"dy":0.0017,"dx":0.0017,"nx":28,"ny":28,"refTime":"2025-12-19T03:00:00:Z","depth":0,"parameterNumber":2,"parameterNumberName":"U-component_of_WINDS"},"data":[0,0,0,0,0,0,0,0,0,0,0,0,0,0,0,0,0,0,0,0,0,0,0,0,0,0,0,0,0,0,0,0,0,0,0,0,0,0,0,0,0,0,0,0,0,0,0,0,0,0,0,0,0,0,0,0,0,0,5.172,5.1721,0,5.1747,5.1748,5.1748,5.1657,5.1654,5.1651,5.1649,5.1681,5.1684,5.1688,0,0,0,0,0,0,0,0,0,0,0,0,0,5.1597,5.16,5.172,5.1721,5.1721,5.1747,5.1748,5.1748,5.1657,5.1654,5.1651,5.1648,5.168,5.1684,5.1688,0,0,0,0,0,0,0,0,0,0,0,0,0,5.164,5.1601,5.172,5.1679,5.1675,5.1747,5.1748,5.1748,5.1658,5.1654,5.165,5.1646,5.1679,5.1684,5.1689,5.1803,0,0,5.1704,5.1707,0,0,0,0,0,0,0,0,5.1638,5.1645,5.1685,5.1682,5.1678,5.1694,5.1716,5.1767,5.1659,5.1665,5.1649,5.1644,5.1689,5.1693,5.1707,5.1804,5.1806,5.1705,5.1708,5.171,5.1712,0,0,0,0,0,0,0,5.1635,5.1643,5.1731,5.1685,5.1681,5.1661,5.1663,5.1725,5.17,5.1664,5.1657,5.1662,5.1687,5.1703,5.1708,5.1806,5.1705,5.1709,5.1712,5.1714,5.2004,5.2008,0,0,0,0,0,0,5.1637,5.1641,5.173,5.1732,5.1647,5.1667,5.1669,5.1693,5.1699,5.1696,5.1665,5.1657,5.1696,5.1702,5.1708,5.1845,5.171,5.1715,5.1718,5.1999,5.2005,5.201,0,0,0,0,0,0,5.1634,5.1645,5.1729,5.1685,5.1694,5.1673,5.1702,5.1696,5.1712,5.17,5.1695,5.1686,5.1693,5.1701,5.1781,5.1845,5.1717,5.1722,5.1994,5.2001,5.2007,5.2118,0,0,0,0,0,0,5.1631,5.1645,5.1686,5.1686,5.1697,5.1799,5.1706,5.17,5.1721,5.1711,5.1718,5.1715,5.169,5.1774,5.1786,5.185,5.1726,5.1988,5.1997,5.2005,5.2109,5.2128,5.2145,0,0,0,0,0,5.1627,5.1716,5.1689,5.17,5.1747,5.1803,5.1809,5.1777,5.1726,5.1769,5.1762,5.1715,5.1836,5.1783,5.1796,5.1862,5.1984,5.1994,5.2004,5.2101,5.2124,5.2144,0,0,0,0,0,0,5.1724,5.1715,5.1685,5.1776,5.1791,5.1787,5.184,5.1803,5.1833,5.1822,5.1783,5.1786,5.1874,5.1876,5.1816,5.1975,5.1901,5.1915,5.197,5.1993,5.201,5.2008,5.173,0,0,0,0,0,5.1757,5.1801,5.1791,5.1873,5.1882,5.1861,5.1883,5.1858,5.1872,5.1878,5.1876,5.1894,5.1936,5.1964,5.2002,5.2109,5.2111,5.2162,5.218,5.2195,5.2207,5.2267,5.229,5.2044,5.2044,5.2043,0,0,5.1823,5.1824,5.1854,5.1893,5.1901,5.195,5.1866,5.192,5.1957,5.1887,5.1962,5.1963,5.1979,5.2074,5.2116,5.2079,5.2276,5.2208,5.222,5.2224,5.228,5.2304,5.2324,5.2051,5.2049,5.2048,0,0,5.197,5.1974,5.2044,5.2055,5.2069,5.2055,5.2072,5.2075,5.2073,5.2148,5.2097,5.2142,5.2214,5.2229,5.2247,5.2405,5.2364,5.2419,5.2512,5.2572,5.2591,5.2608,5.2667,5.2688,5.2431,5.2431,5.2432,0,5.2051,5.2121,5.2085,5.2144,5.2164,5.2103,5.2176,5.2189,5.2216,5.2232,5.219,5.2283,5.2289,5.2389,5.2428,5.2443,5.2464,5.2417,5.2591,5.2608,5.2623,5.2679,5.2701,5.2438,5.2437,5.2437,5.2436,0,5.2222,5.2272,5.2327,5.2354,5.2381,5.2447,5.2424,5.2456,5.243,5.2421,5.2501,5.2508,5.2547,5.2569,5.2544,5.2667,5.2644,5.2597,5.2522,5.2654,5.2706,5.2726,5.2447,5.2445,5.2443,5.2441,0,0,5.2427,5.2437,5.2458,5.2471,5.2485,5.2524,5.2589,5.2627,5.2657,5.2679,5.2734,5.28,5.2758,5.2778,5.2754,5.2806,5.2935,5.2754,5.2754,5.2789,5.3074,5.3109,5.3134,5.2909,5.2913,5.2916,5.3073,0,5.2573,5.2682,5.2654,5.2764,5.2812,5.2757,5.2815,5.2831,5.2826,5.2868,5.2863,5.291,5.285,5.2863,5.2912,5.2909,5.2992,5.2897,5.2962,5.2965,5.2959,5.3161,5.3197,5.3345,5.3093,5.3096,5.3099,0,5.2756,5.2785,5.29,5.291,5.2929,5.298,5.3016,5.3056,5.3075,5.3068,5.3093,5.306,5.3128,5.3054,5.3148,5.3085,5.311,5.3114,5.3119,5.3123,5.304,5.3172,5.3391,5.3414,5.313,5.3128,5.3125,0,5.2896,5.2965,5.3043,5.3056,5.3069,5.3107,5.3115,5.3129,5.3156,5.3188,5.3206,5.3246,5.3268,5.3301,5.3282,5.3229,5.3381,5.3304,5.3379,5.338,5.3413,5.3411,5.364,5.3429,5.3429,5.3428,5.3428,0,5.3061,5.3134,5.3107,5.3155,5.3237,5.3206,5.3289,5.329,5.3305,5.3355,5.3311,5.3359,5.333,5.3377,5.3363,5.3446,5.3456,5.3454,5.3449,5.3458,5.3458,5.3473,5.3463,5.3434,5.3433,5.3432,5.3431,0,5.3231,5.3215,5.3297,5.3304,5.3308,5.3368,5.3374,5.3421,5.3414,5.3478,5.3492,5.3482,5.3535,5.352,5.3578,5.3568,5.3673,5.3655,5.3666,5.3662,5.3739,5.3732,5.3986,5.4018,5.3786,5.3789,5.379,0,5.3337,5.3392,5.3405,5.3435,5.3446,5.3495,5.3522,5.3496,5.3527,5.3556,5.36,5.365,5.3688,5.3777,5.3776,5.3821,5.3804,5.3891,5.3811,5.3819,5.3807,5.3804,5.3811,5.3906,5.3909,5.3911,5.3913,0,5.3528,5.3519,5.3559,5.3599,5.3633,5.3662,5.3688,5.3716,5.3692,5.373,5.3784,5.3814,5.3874,5.3925,5.3968,5.3978,5.3943,5.3938,5.3958,5.3967,5.3972,5.3972,5.371,5.3932,5.393,5.3929,5.3928,5.3927,5.367,5.3717,5.3735,5.3783,5.38,5.3827,5.3872,5.3872,5.3916,5.3963,5.3946,5.4009,5.4031,5.4084,5.4101,5.4151,5.4119,5.4147,5.4154,5.4162,5.4172,5.3965,5.4159,5.4158,5.4158,5.4157,5.4157,0,5.3859,5.3869,5.3914,5.3952,5.3991,5.3955,5.3983,5.4018,5.4074,5.4097,5.4137,5.4202,5.4252,5.4257,5.4305,5.4345,5.4331,5.4359,5.4356,5.4359,5.4198,5.4176,5.437,5.437,5.437,5.437,5.437,5.437,5.3962,5.4042,5.4036,5.4126,5.4135,5.4196,5.4216,5.4242,5.426,5.4334,5.4376,5.4379,5.4396,5.4446,5.4492,5.4493,5.4513,5.4548,5.4542,5.4391,5.437,5.435,5.4329,5.4552,5.4552,5.4699,5.4701,5.4702]},{"header":{"parameterUnit":"m.s-1","parameterCategory":1,"la1":30.2991,"la2":30.254,"lo1":-89.0895,"lo2":-89.0444,"dy":0.0017,"dx":0.0017,"nx":28,"ny":28,"refTime":"2025-12-19T03:00:00:Z","depth":0,"parameterNumber":3,"parameterNumberName":"V-component_of_WINDS"},"data":[0,0,0,0,0,0,0,0,0,0,0,0,0,0,0,0,0,0,0,0,0,0,0,0,0,0,0,0,0,0,0,0,0,0,0,0,0,0,0,0,0,0,0,0,0,0,0,0,0,0,0,0,0,0,0,0,0,0,1.784,1.7842,0,1.8068,1.807,1.8073,1.8107,1.8105,1.8103,1.8101,1.8338,1.8346,1.8354,0,0,0,0,0,0,0,0,0,0,0,0,0,1.7435,1.7442,1.7839,1.7842,1.7845,1.8067,1.8071,1.8074,1.8108,1.8105,1.8103,1.81,1.8336,1.8345,1.8355,0,0,0,0,0,0,0,0,0,0,0,0,0,1.7631,1.7444,1.7839,1.7889,1.7896,1.8067,1.8071,1.8075,1.8108,1.8105,1.8102,1.8099,1.8332,1.8344,1.8357,1.8495,0,0,1.8394,1.84,0,0,0,0,0,0,0,0,1.762,1.7646,1.7879,1.7886,1.7894,1.8056,1.8015,1.8216,1.8109,1.8028,1.8101,1.8098,1.8247,1.8266,1.8316,1.8506,1.8516,1.8395,1.8403,1.8408,1.8412,0,0,0,0,0,0,0,1.7607,1.7637,1.793,1.7882,1.7891,1.79,1.7925,1.8053,1.8152,1.8035,1.8038,1.8064,1.8251,1.8304,1.8322,1.852,1.8395,1.8406,1.8414,1.8418,1.8833,1.8836,0,0,0,0,0,0,1.7584,1.7625,1.7923,1.7937,1.7746,1.791,1.7938,1.8007,1.8151,1.817,1.8066,1.8065,1.8284,1.8307,1.833,1.8501,1.8408,1.842,1.8427,1.8829,1.8834,1.8838,0,0,0,0,0,0,1.7575,1.761,1.7914,1.7782,1.7821,1.792,1.7998,1.8013,1.8067,1.8175,1.8193,1.8103,1.8283,1.8313,1.8453,1.851,1.8425,1.8436,1.8825,1.8831,1.8836,1.8844,0,0,0,0,0,0,1.7563,1.7606,1.766,1.7783,1.7828,1.8032,1.8002,1.802,1.8087,1.8087,1.8214,1.8232,1.8283,1.8434,1.8465,1.8525,1.8446,1.8821,1.8828,1.8834,1.8839,1.8849,1.8858,0,0,0,0,0,1.7548,1.7654,1.7662,1.7698,1.7897,1.8036,1.8062,1.8117,1.8092,1.8147,1.8216,1.8228,1.8498,1.8449,1.8484,1.8548,1.8817,1.8826,1.8833,1.8835,1.8847,1.8857,0,0,0,0,0,0,1.7537,1.7671,1.7682,1.7831,1.7921,1.8041,1.8112,1.8129,1.8229,1.8225,1.8291,1.8319,1.8456,1.8516,1.8458,1.8689,1.8656,1.8671,1.8645,1.8657,1.8666,1.865,1.8456,0,0,0,0,0,1.7552,1.7652,1.7764,1.7885,1.7929,1.8012,1.8075,1.811,1.8207,1.8246,1.8325,1.842,1.8526,1.8595,1.8698,1.8847,1.8875,1.8909,1.8918,1.8925,1.8938,1.902,1.9037,1.8864,1.8864,1.8864,0,0,1.7584,1.7669,1.7729,1.7885,1.7959,1.8062,1.8045,1.8155,1.8233,1.8263,1.84,1.8461,1.8571,1.8715,1.8783,1.877,1.8991,1.8935,1.894,1.895,1.903,1.9047,1.9061,1.887,1.8869,1.8868,0,0,1.7695,1.7769,1.7877,1.7951,1.8063,1.8117,1.8143,1.826,1.8301,1.8439,1.8464,1.8557,1.8738,1.8815,1.8878,1.9014,1.9029,1.9046,1.9095,1.9174,1.9188,1.92,1.9249,1.9266,1.9058,1.9058,1.9058,0,1.7721,1.7876,1.7931,1.804,1.8107,1.8137,1.8247,1.8317,1.8457,1.8503,1.8485,1.8712,1.8789,1.8951,1.8984,1.9034,1.9065,1.9033,1.9181,1.9194,1.9207,1.9254,1.9272,1.906,1.906,1.9059,1.9059,0,1.7903,1.801,1.8084,1.8217,1.8292,1.8401,1.8472,1.8542,1.8569,1.8625,1.8765,1.8856,1.8978,1.9019,1.9048,1.9186,1.9174,1.9168,1.9136,1.9224,1.9269,1.9288,1.9062,1.9061,1.9061,1.906,0,0,1.8016,1.8175,1.8202,1.8262,1.8386,1.847,1.858,1.8698,1.8756,1.8851,1.8945,1.9096,1.9091,1.9162,1.9199,1.9268,1.937,1.9254,1.9258,1.9273,1.9528,1.9532,1.9553,1.938,1.9383,1.9386,1.9519,0,1.8142,1.8338,1.8389,1.8555,1.8655,1.8683,1.8778,1.8865,1.8919,1.9012,1.9072,1.9178,1.9163,1.9206,1.9275,1.9343,1.9423,1.9334,1.9468,1.9473,1.9442,1.9577,1.9583,1.9704,1.9537,1.954,1.9542,0,1.8316,1.8413,1.8588,1.8698,1.8742,1.8826,1.8938,1.9026,1.9124,1.9158,1.9236,1.9266,1.9381,1.9341,1.95,1.9439,1.9496,1.9537,1.9543,1.956,1.9514,1.9597,1.9743,1.9762,1.9571,1.9569,1.9566,0,1.8381,1.8555,1.8683,1.8733,1.8864,1.8923,1.898,1.9075,1.9142,1.9239,1.9283,1.9393,1.9453,1.9537,1.9596,1.9561,1.975,1.9716,1.9783,1.9782,1.9824,1.982,1.9982,1.9858,1.9858,1.9857,1.9857,0,1.8518,1.8624,1.8714,1.8793,1.8912,1.8969,1.9087,1.9145,1.9228,1.9319,1.935,1.9434,1.9505,1.9599,1.9646,1.9771,1.9797,1.9829,1.984,1.9827,1.9823,1.9868,1.9861,1.9862,1.9861,1.986,1.9859,0,1.8612,1.8676,1.8817,1.8928,1.8959,1.9042,1.9138,1.9215,1.9268,1.9382,1.9413,1.9498,1.961,1.9675,1.9817,1.9848,1.9987,1.9994,1.9954,1.9959,2.0023,2.0016,2.022,2.025,2.0104,2.0105,2.0106,0,1.8696,1.8778,1.8897,1.8959,1.9017,1.9117,1.9185,1.9243,1.9312,1.9429,1.9492,1.9605,1.9699,1.9877,1.9952,2.006,2.0071,2.0134,2.0088,2.0071,2.0073,2.0068,2.0076,2.0143,2.0144,2.0145,2.0146,0,1.8837,1.8864,1.896,1.9067,1.9147,1.9234,1.9321,1.937,1.9443,1.9519,1.9633,1.9706,1.9849,1.9961,2.0075,2.0135,2.0153,2.016,2.0181,2.017,2.0143,2.0159,1.9977,2.0156,2.0155,2.0154,2.0153,2.0153,1.893,1.9004,1.9099,1.9204,1.9275,1.9355,1.9432,1.9495,1.959,1.9711,1.9739,1.9859,1.9954,2.0108,2.017,2.0265,2.0254,2.0285,2.0294,2.0301,2.0303,2.0126,2.0286,2.0285,2.0285,2.0285,2.0285,0,1.9074,1.9135,1.9232,1.9351,1.9434,1.9441,1.9537,1.9606,1.971,1.9796,1.9887,2.0017,2.0126,2.0208,2.0319,2.0379,2.039,2.0406,2.0403,2.0417,2.0306,2.0276,2.0395,2.0395,2.0395,2.0395,2.0395,2.0395,1.9159,1.9284,1.9322,1.9482,1.9543,1.966,1.9714,1.9787,1.9856,1.9999,2.0089,2.0141,2.0225,2.0342,2.0442,2.0463,2.0503,2.0518,2.0541,2.0436,2.0424,2.0413,2.0386,2.0526,2.0526,2.0644,2.0645,2.0646]}]]